Location: Newark
(36.2667°N, 50.0000°E)
Time: 22:35:15
(UTC+00:00)

Hubble Space Telescope - Pass Details

Date: 29 September 2020
Orbit: 536 x 540 km, 28.5° (Epoch: 26 October)

Event Time Altitude Azimuth Distance (km) Brightness Sun altitude
Exits shadow 00:48:56 25° 174° (S) 1,100 2.2 -21.8°
Maximum altitude 00:48:58 25° 173° (S) 1,100 2.2 -21.8°
Drops below altitude 10° 00:52:22 10° 117° (ESE) 1,777 4.1 -21.1°
Sets 00:54:54 0° 104° (ESE) 2,667 5.4 -20.6°
